Погода Тарко-Сале

Хотите узнать прогноз погоды Тарко-Сале? Тогда Вам сюда: Погода Тарко-Сале

Поиск расширенной информации на нашем сайте:

Полезная информация:

Новости сайта



02.01.2020
Опубликован Долгосрочный прогноз погоды по городам России и ближнего зарубежья на январь 2020 года.
Карты: Прогноз на январь и февраль 2020 года, Сравнение прогнозируемой аномалии приземной температуры воздуха на январь 2020 года по разным моделям.




Погода Тарко-Сале - сегодня

Время (UTC), дата Ветер
(°,м/с) 
Видим.   Явления Облачность Т
(°С)
Тd
(°С)
f(%) Тe
(°С)
Pmin
(гПа)
dP
(гПа)
Po
(мм)
O2
(г/м3)
Тmin Tmax R s Состояние
почвы
15 09.08.20 010 (С) 10 км    9/6 360 м кучево-дожд., средняя, верхняя 
[Cb cap|Ac As|Ci fib]
+19.6 +15.5 77 +30  1008.4  0.4  754  280    +27.2       
18 09.08.20 020 (С) 10 км    6/3 300 м кучево-дожд., средняя 
[Cb cap|Ac trans]
+15.9 +13.4 85 +23  1008.8  0.3  754  285           
21 09.08.20 040 (СВ) 10 км    3/0 средняя 
[Ac As]
+13.6 +12.3 92 +18  1008.7  -0.1  754  287           
00 10.08.20 040 (СВ) 10 км    3/1 300 м средняя 
[Sc|Ac trans]
+13.1 +12.2 94 +18  1008.4  -0.3  754  288           
03 10.08.20 070 (В) 10 км    3/0 средняя 
[Ac trans]
+17.3 +13.7 79 +24  1008.2  -0.2  754  283  +12.8         
06 10.08.20 080 (В) 10 км    3/1 1000 м средняя 
[Cu med, cong|Ac trans]
+23 +16 65 +33  1007.3  -0.8  753  277           
09 10.08.20 110 (В) 10 км    1/1 1000 м 
[Cu med, cong]
+27.1 +14.9 47 +36  1005.8  -1.5  752  273           
12 10.08.20 110 (В) 10 км    3/3 1000 м средняя 
[Cu med, cong|Ac trans]
+26.9 +13.8 44 +34  1005.5  -0.3  752  273           
15 10.08.20 100 (В) 10 км    ясно 
+20.7 +14.9 69 +29  1004.9  -0.6  751  278    +28.3       
18 10.08.20 070 (В) 10 км    ясно 
+17 +15.4 90 +27  1004.7  -0.3  751  282           
21 10.08.20 090 (В) 10 км    8/5 420 м средняя 
[Sc|Ac trans]
+17.9 +15.4 85 +28  1003.8  -0.9  751  281           
00 11.08.20 090 (В) 10 км    ясно 
+16.6 +14.5 87 +26  1003.4  -0.4  750  282           
03 11.08.20 120 (ЮВ) 10 км    ясно 
+23.1 +15.8 63 +33  1002.6  -0.7  750  275  +16         
06 11.08.20 130 (ЮВ) 10 км    8/0 средняя 
[Ac trans]
+28.4 +14.3 42 +36  1001.7  -0.8  749  271           
09 11.08.20 130 (ЮВ) 10 км    8/6 450 м кучево-дожд., средняя 
[Cb cap|Ac trans]
+28.2 +13.5 40 +34  1000.7  -1  748  271           
12 11.08.20 090 (В) 10 км  {гроза, ливн. осадки}  9/8 400 м средняя 
[Sc|Ac As]
+26 +20.2 70 +45  1000.3  -0.4  748  270           
15 11.08.20 110 (В) 10 км    8/6 330 м средняя, верхняя 
[Sc|Ac trans|Ci fib]
+22.4 +16.8 71 +34  1000  -0.4  748  275    +29.8     
18 11.08.20 110 (В) 10 км    10/0 верхняя 
[Ci fib]
+18.7 +15.4 81 +29  999  -1  747  278           
21 11.08.20 тихо ()   10 км    8/6 330 м средняя 
[Sc|Ac As]
+18 +16 88 +29  998.4  -0.7  746  279           
00 12.08.20 130 (ЮВ) 10 км    4/0 средняя, верхняя 
[Ac As|Ci fib]
+17.2 +15.8 91 +29  998.5  0.2  747  280           
03 12.08.20 140 (ЮВ) 10 км    10/4 1000 м средняя, верхняя 
[Cu med, cong|Ac trans|Ci fib]
+21.4 +17 76 +34  998.6  0.1  747  275  +16.4        влажная 
06 12.08.20 130 (ЮВ) 10 км    4/0 верхняя 
[Ci fib]
+27.4 +14.7 46 +36  998  -0.6  746  270           
09 12.08.20 130 (ЮВ) 10 км    4/4 1000 м 
[Cu med, cong]
+28.5 +10.3 32 +30  997.9  0.1  746  270           
12 12.08.20 130 (ЮВ) 10 км    3/1 1000 м средняя 
[Cu hum|Ac trans]
+28.3 +10.4 33 +30  997.5  -0.3  746  271           
15 12.08.20 110 (В) 10 км    6/0 средняя, верхняя 
[Ac As|Ci fib]
+20.9 +14.3 66 +29  997.8  0.2  746  276    +29.2       
Время (UTC), дата Ветер
(°,м/с) 
Видим.   Явления Облачность Т
(°С)
Тd
(°С)
f(%) Тe
(°С)
Pmin
(гПа)
dP
(гПа)
Po
(мм)
O2
(г/м3)
Тmin Tmax R s Состояние
почвы

Для получения пояснительной информации подведите курсор к названию столбца.

ПОГОДА Тарко-Сале - архив

Всё, что Вы хотите узнать о погоде Тарко-Сале - удобно и подробно!

Выберите нужную дату (начиная с 1 января 2019* года) и нажмите кнопку "Найти".
Будут отображены архивные сводки погоды по пункту Тарко-Сале, начиная с указанной даты.


Отображать данные в формате CSV (для использования в таблицах Excel)


Внимание! Наш архив погоды предназначен исключительно для личного некоммерческого использования в познавательных целях. Если Вам необходимы официальные справки о состоянии погоды (для производственных, юридических, коммерческих и т.п. целей), обращайтесь в органы Росгидромета.

*Примечание: данная дата относится к архиву по метеостанциям СССР (Россия, СНГ, Балтия).
Архив по метеостанциям Зарубежной Европы и Азии (кроме Китая) хранится 10 дней, по другим регионам земного шара (Китай, Африка, Америка, Австралия, Океания) - 1 день.

Тарко-Сале - район местоположения метеостанции


Название, широта, долгота, высота метеостанции:
Тарко-Сале 64.9°ш. 77.8°д. 27 м над ур. моря [Российская Федерация]

Дополнительная информация

В oтличие oт бoльшинства пoгoдных сайтoв мы публикуем пoдрoбную метеoинфoрмацию в детальнoм прoфессиoнальнoм фoрмате.

Характеристики температуры и влажнoсти вoздуха измеряются на высoте 2 м в тени вдали oт зданий и деревьев.
Скoрoсть ветра измеряется на высoте 10 м (на урoвне рoста челoвека скoрoсть ветра ниже в 1.5-2 раза). Если метеoстанция нахoдится в гoрoде или в лесу, тo скoрoсть ветра занижена на 2-4 м/с пo сравнению с oткрытым местoм. Скoрoсть ветра над акватoриями крупных рек и oзёр, а также на вершинах хoлмoв на 2-5 м/с выше, чем в oбычных услoвиях.
Атмoсфернoе давление в разных тoчках местнoсти мoжет значительнo oтличаться oт давления на метеoстанции, в зависимoсти oт услoвий рельефа (при пoдъёме на 10 м давление пoнижается примернo на 1 мм рт.ст.).